Location: Coupvray
(48.8929°N, 2.7967°E)
Time: 10:05:25
(UTC+00:00)

Meteor 1-20 Rocket - Pass Details

Date: 14 July 2020
Orbit: 820 x 891 km, 81.2° (Epoch: 05 August)

Event Time Altitude Azimuth Distance (km) Brightness Sun altitude
Exits shadow 00:58:22 31° 196° (SSW) 1,430 4.8 -18.1°
Maximum altitude 01:01:09 83° 282° (WNW) 865 4.2 -17.9°
Drops below altitude 10° 01:06:52 10° 11° (N) 2,516 7.9 -17.7°
Sets 01:09:20 0° 12° (NNE) 3,468 9.1 -17.5°
